COSMOS 2251 DEB, 34589

Orbit data source: Space-Track

COSMOS 2251 DEB, 34589 is space debris in LEO originally from a launch on Wed, 16 Jun 1993 UTC launched from the Plesetsk Missile And Space Complex (PKMTR). The debris from Iridium 33, an American commercial communications satellite, has been tracked extensively since its accidental collision with the defunct Russian satellite Cosmos 2251 in 2009. This event, occurring at high speed in low Earth orbit (LEO), generated thousands of pieces of space debris, significantly increasing the risk of further collisions. The Iridium 33 debris cloud has impacted space traffic management and orbital debris mitigation strategies, making it a subject of ongoing study in space situational awareness.

Loading next visibility...
Identifier
34589, 1993-036WB
Orbit
LEO
Country
Flag of CISCIS
Related business
Manufacturer
Unknown
Mission
Spacecraft
Bus & Motor
Unknown
Mass
Unknown
Launch date (UTC)
1993-06-16 (33 years ago)
Launch vehicle
Unknown
Launch site
Plesetsk Missile And Space Complex (PKMTR)
Object type
Payload
Rocket body
Debris
Shape & HBR
Unknown shape, 0.1 m
Radar Cross Section
Medium (>0.1 m² and <1 m²)

Expand to show TLE details & history
Last TLE update: 3 days ago

TLE from 3 days ago
0 COSMOS 2251 DEB
1 34589U 93036WB  26171.21336749  .00000295  00000-0  21614-3 0  9995
2 34589  73.9252  93.0756 0248152 359.5949 150.2268 13.86402832873374
Epoch: 2026-06-20T05:07Z
TLE epoch observation values (Epoch: 2026-06-20T05:07:14.951Z)
Latitude
27.62323°
Longitude
-80.79637°
Altitude
1,103.047 km
Speed
7.224 km/s
True Right ascension
17h 37m 47s
True Declination
27° 29' 19"
Sunlit
Object was in full shadow at epoch
Visualization orbit readout
Latitude
Unknown
Longitude
Unknown
Altitude
Unknown
Speed
Unknown
Apparent Right ascension
Unknown
Apparent Declination
Unknown
Sunlit
N/A
Visualization observer readout
Local Sidereal Time
04:17:05
Azimuth
Unknown
Elevation
Unknown
Doppler factor
Unknown
Orbital elements
Apogee altitude
1,120.525 km
Perigee altitude
757.376 km
Semi-major axis
7,317.087 km
Eccentricity
0.02482
Inclination
73.9252°
RAAN
93.0756°
Arg. of periapsis
359.5949°
True anomaly
151.60166°
Mean anomaly
150.2268°
Eccentric anomaly
150.91789°
Mean motion
3.46765 °/min
Orbital period
103.82 mins
BSTAR
0.00021614
Loading maneuver chart data...
Computing Atmospheric mass density...

Documentation

Showing up to 5 results
|